Location: Vienna
(48.2082°N, 16.3738°E)
Time: 09:39:55
(UTC+02:00)

ISS - Pass Details

Date: 21 July 2018
Orbit: 402 x 408 km, 51.6° (Epoch: 23 July)

Event Time Altitude Azimuth Distance (km) Brightness Sun altitude
Rises 21:17:36 0° 211° (SSW) 2,307 -0.1 -5.2°
Reaches altitude 10° 21:19:55 10° 196° (SSW) 1,453 -1.2 -5.5°
Maximum altitude 21:22:35 23° 141° (SE) 902 -2.6 -5.9°
Drops below altitude 10° 21:25:16 10° 86° (E) 1,464 -1.4 -6.2°
Sets 21:27:36 0° 72° (ENE) 2,329 -0.3 -6.5°
